Location: Austin
(30.3000°N, 97.7500°W)
Time: 10:11:36
(UTC-05:00)

Cosmos 2333 Rocket - Pass Details

Date: 03 April 2024
Orbit: 840 x 861 km, 70.8° (Epoch: 21 April)

Event Time Altitude Azimuth Distance (km) Brightness Sun altitude
Exits shadow 05:46:33 21° 303° (WNW) 1,833 3.6 -19.9°
Drops below altitude 10° 05:50:26 10° 347° (NNW) 2,463 4.7 -19.1°
Sets 05:53:32 0° 3° (N) 3,399 5.6 -18.4°
